Home   Weather   Prestwick   Past weeks
Flag for United Kingdom

Past Weather in Prestwick, Scotland, United Kingdom — Yesterday and Last 2 Weeks

Now
41 °F

Broken clouds.


Feels Like: 32 °F
Forecast: N/A
Wind: 21 mph from Southwest

Location: Prestwick Airport

Current Time: Feb 18, 2020 at 4:11:33 pm

Latest Report: Feb 18, 2020 at 3:20 pm


Visibility: N/A

Pressure: 29.68 "Hg

Humidity: 81%

Dew Point: 36 °F

Location of PrestwickLocation

Past Weather in Prestwick — Graph

°F

Prestwick Temperature Yesterday

Maximum temperature yesterday: 46 °F (at 8:20 am)
Minimum temperature yesterday: 39 °F (at 6:50 pm)
Average temperature yesterday: 44 °F

High & Low Weather Summary for the Past Weeks

 TemperatureHumidityPressure
High52 °F (Feb 9, 7:20 am)100% (Feb 5, 12:50 am)30.57 "Hg (Feb 5, 12:50 am)
Low34 °F (Feb 6, 11:50 pm)49% (Feb 7, 11:50 am)28.47 "Hg (Feb 9, 9:50 am)
Average43 °F80%29.51 "Hg
* Reported Feb 3 2:20 pm — Feb 18 2:50 pm, Prestwick. Weather by CustomWeather, © 2020

Note: Actual official high and low records may vary slightly from our data, if they occured in-between our weather recording intervals... More about our weather records

Prestwick Weather History for the Previous 24 Hours

Scroll right to see more
 ConditionsComfort  
Time TempWeatherWind HumidityBarometerVisibility
2:50 pm
Tue, Feb 18
43 °FScattered clouds.20 mph81%29.65 "HgN/A
2:20 pm43 °FScattered clouds.21 mph81%29.65 "HgN/A
1:50 pm43 °FLight rain. Broken clouds.18 mph81%29.65 "HgN/A
1:20 pm45 °FLight rain. Scattered clouds.21 mph76%29.65 "HgN/A
12:50 pm45 °FScattered clouds.22 mph76%29.65 "HgN/A
12:20 pm45 °FBroken clouds.22 mph76%29.68 "HgN/A
11:50 am45 °FBroken clouds.23 mph76%29.68 "HgN/A
11:20 am45 °FScattered clouds.25 mph76%29.68 "HgN/A
10:50 am43 °FScattered clouds.25 mph81%29.68 "HgN/A
10:20 am43 °FBroken clouds.22 mph81%29.68 "HgN/A
9:50 am43 °FBroken clouds.24 mph81%29.68 "HgN/A
9:20 am43 °FBroken clouds.24 mph76%29.68 "HgN/A
8:50 am43 °FBroken clouds.23 mph81%29.68 "HgN/A
8:20 am43 °FScattered clouds.23 mph81%29.68 "HgN/A
7:50 am43 °FScattered clouds.22 mph81%29.68 "HgN/A
7:20 am41 °FPassing clouds.22 mph81%29.68 "HgN/A
6:50 am41 °FPassing clouds.24 mph81%29.68 "HgN/A
6:20 am41 °FPassing clouds.25 mph81%29.68 "HgN/A
5:50 am41 °FPartly cloudy.24 mph81%29.68 "HgN/A
4:50 am41 °FPartly cloudy.25 mph87%29.68 "HgN/A
3:50 am41 °FPartly cloudy.26 mph81%29.71 "HgN/A
2:50 am41 °FPartly cloudy.24 mph81%29.71 "HgN/A
1:50 am41 °FPassing clouds.25 mph81%29.71 "HgN/A
12:50 am41 °FPassing clouds.24 mph81%29.71 "HgN/A
11:50 pm
Mon, Feb 17
41 °FPartly cloudy.18 mph81%29.71 "HgN/A
11:20 pm41 °FPartly cloudy.26 mph81%29.68 "HgN/A
10:50 pm43 °FPartly cloudy.25 mph81%29.68 "HgN/A
10:20 pm43 °FPartly cloudy.24 mph81%29.68 "HgN/A
9:50 pm41 °FLight rain. Partly cloudy.17 mph87%29.65 "HgN/A
9:20 pm41 °FLight rain. Partly cloudy.17 mph87%29.65 "HgN/A
8:50 pm41 °FLight rain. Passing clouds.22 mph87%29.62 "HgN/A
8:20 pm41 °FLight rain. Passing clouds.22 mph87%29.62 "HgN/A
7:50 pm39 °FLight rain. Passing clouds.24 mph87%29.62 "HgN/A
7:20 pm41 °FSprinkles. Passing clouds.25 mph87%29.59 "HgN/A
6:50 pm39 °FSprinkles. Passing clouds.22 mph93%29.59 "HgN/A
6:20 pm41 °FLight rain. Passing clouds.25 mph81%29.56 "HgN/A
5:50 pm43 °FPassing clouds.22 mph76%29.56 "HgN/A
5:20 pm43 °FPassing clouds.23 mph76%29.53 "HgN/A
4:50 pm45 °FScattered clouds.22 mph71%29.53 "HgN/A
4:20 pm45 °FScattered clouds.18 mph71%29.50 "HgN/A
Weather by CustomWeather, © 2020

See weather overview

Advertising